PERSEUS-M2

Last updated on Fri Jul 11 2025 00:03:41 GMT+0000 (Coordinated Universal Time)

1 40037U 14033AD 25191.58445270 .00001386 00000+0 13608-3 0 9996 2 40037 97.9561 131.5252 0012179 359.2049 0.9149 14.93822929599751
UTC large
Height (km)
Speed (km/s)
/
Latitude / Longitude
Inclination (degrees)
Orbital Period (minutes)
Azimuth
Elevation
Range (km)
Doppler Factor

Next 0 passes for location: London (51.5072 / 0.1276)

Sorry there are no passes over London.